Torna al catalogo

CZ-6A DEB

AttivoSSO
NORAD 54330·DEBRIS·🇨🇳 China

Lanciato Nov 11, 2022 da Taiyuan Satellite Launch Center

Loading…

Prossimi Passaggi (prossime 24 ore)

TLE

AggiornatoSource: Space-Track

Epoca: Sep 14, 2026, 12:16 UTC

1 54330U 22151BZ  26257.51177698  .00001900  00000-0  75081-3 0  9996
2 54330  98.7556 281.9582 0053629  66.6810 294.0002 14.29395680198983

Traccia CZ-6A DEB in tempo reale con AllMySat

Download on the App Store